FW7793 Weather Reports


time (UTC)temp
F
wind
direction
speed
knots
gust
knots
rain 1hr
in
rain 24hr
in
rain mn
in
humidity
%
barometer
mb
20260510051215 67 130 0.0 0.0 0.00 0.02 0.02 99 1010.4
20260510050712 67 130 0.0 0.0 0.05 0.02 0.02 99 1010.5
20260510050210 67 136 0.0 0.0 0.05 0.02 0.02 99 1010.6
20260510045706 67 136 0.0 0.0 0.00 0.01 0.01 98 1010.5
20260510045203 67 136 0.0 0.9 0.00 0.01 0.01 99 1010.5
20260510044659 67 136 0.0 0.0 0.00 0.01 0.01 99 1010.3
20260510044157 67 136 0.0 0.9 0.07 0.01 0.01 99 1010.6
20260510043652 67 137 0.0 0.0 0.07 0.01 0.01 99 1010.8
20260510043149 67 137 0.0 0.0 0.00 0.00 0.00 98 1010.5
20260510042647 67 137 0.0 0.0 0.00 0.00 0.00 98 1010.6
20260510042142 67 136 0.0 0.0 0.00 0.00 0.00 98 1010.5
20260510041640 67 137 0.0 0.0 0.00 0.00 0.00 98 1010.7
20260510041136 67 137 0.0 0.0 0.00 0.00 0.00 98 1010.6
20260510040634 67 137 0.0 0.0 0.00 0.00 0.00 98 1010.6
20260510040130 67 137 0.0 0.0 0.00 0.00 0.00 98 1010.2
20260510035626 67 137 0.0 0.0 0.00 0.38 0.38 98 1010.6
20260510035121 67 137 0.0 0.0 0.00 0.38 0.38 98 1010.2
20260510034618 67 137 0.0 0.0 0.00 0.38 0.38 98 1010.6
20260510034115 67 137 0.0 0.0 0.00 0.38 0.38 98 1010.4
20260510033612 67 137 0.0 0.0 0.00 0.38 0.38 98 1010.2
20260510033109 67 137 0.0 0.0 0.00 0.38 0.38 98 1010.2
20260510032605 67 137 0.0 0.0 0.00 0.38 0.38 98 1010.0
20260510032101 67 137 0.0 0.0 0.00 0.38 0.38 98 1010.0
20260510031556 67 137 0.0 0.0 0.00 0.38 0.38 98 1010.1
20260510031052 68 137 0.0 0.0 0.00 0.38 0.38 98 1010.1
20260510030548 68 137 0.0 0.9 0.00 0.38 0.38 98 1010.1
20260510030046 68 136 0.0 0.0 0.00 0.38 0.38 98 1010.2
20260510025542 68 137 0.0 0.0 0.00 0.38 0.38 98 1010.0
20260510025040 68 137 0.0 0.0 0.00 0.38 0.38 98 1009.9
20260510024536 68 137 0.0 0.0 0.00 0.38 0.38 98 1010.0
20260510024033 68 137 0.0 0.0 0.00 0.38 0.38 98 1009.9
20260510023529 68 137 0.0 0.0 0.00 0.38 0.38 98 1010.0
20260510023026 68 136 0.0 0.0 0.00 0.38 0.38 98 1009.8
20260510022526 68 136 0.0 0.0 0.00 0.38 0.38 98 1009.9
20260510022020 68 138 0.0 0.0 0.00 0.38 0.38 98 1009.9
20260510021517 68 139 0.0 0.0 0.00 0.38 0.38 98 1009.9
20260510021015 68 138 0.0 0.0 0.00 0.38 0.38 98 1009.7
20260510020509 68 139 0.0 0.0 0.00 0.38 0.38 98 1009.7
20260510020005 68 139 0.0 0.0 0.00 0.38 0.38 98 1009.9
20260510015500 68 139 0.0 0.0 0.00 0.38 0.38 98 1009.5
20260510014956 68 139 0.0 0.0 0.00 0.38 0.38 98 1009.7
20260510014454 68 139 0.0 0.0 0.00 0.38 0.38 98 1009.7
20260510013950 68 146 0.9 0.9 0.00 0.38 0.38 98 1009.6
20260510013444 68 126 0.0 0.0 0.00 0.38 0.38 98 1009.8
20260510012940 68 125 0.0 0.0 0.00 0.38 0.38 98 1009.9
20260510012435 68 180 0.0 0.0 0.00 0.38 0.38 98 1009.8
20260510011931 68 186 0.0 0.0 0.00 0.38 0.38 98 1009.7
20260510011425 68 176 0.0 0.0 0.00 0.38 0.38 98 1009.5
20260510010922 68 152 0.0 0.0 0.05 0.38 0.38 98 1009.3
20260510010420 68 152 0.0 0.0 0.05 0.38 0.38 98 1009.3
20260510005916 68 152 0.0 0.0 0.00 0.37 0.37 98 1009.2
20260510005412 68 132 0.0 0.9 0.00 0.37 0.37 98 1009.4
20260510004910 68 171 0.0 0.0 0.00 0.37 0.37 98 1009.5
20260510004407 68 177 0.0 0.0 0.00 0.37 0.37 98 1009.4
20260510003905 68 173 0.0 0.0 0.00 0.37 0.37 98 1009.4
20260510003401 68 173 0.0 0.0 0.00 0.37 0.37 97 1009.4
20260510002900 68 184 0.9 0.9 0.00 0.37 0.37 97 1009.5
20260510002358 68 157 0.9 0.9 0.00 0.37 0.37 97 1009.5
20260510001854 68 177 0.0 0.0 0.00 0.37 0.37 97 1009.3
20260510001352 69 176 0.0 0.9 0.00 0.37 0.37 97 1009.3
20260510000848 69 175 0.9 0.9 0.00 0.37 0.37 97 1009.1
20260510000348 69 210 0.9 0.9 0.00 0.37 0.37 97 1009.2
20260509235842 69 166 0.9 0.9 0.00 0.37 0.37 97 1009.3
20260509235339 69 133 0.9 0.9 0.00 0.37 0.37 97 1009.1
20260509234835 69 193 0.0 0.9 0.00 0.37 0.37 97 1009.1
20260509234332 69 193 0.0 0.0 0.00 0.37 0.37 97 1009.2
20260509233830 69 193 0.0 0.0 0.00 0.37 0.37 97 1008.9
20260509233327 69 178 0.9 0.9 0.00 0.37 0.37 97 1009.0
20260509232822 69 152 0.9 0.9 0.00 0.37 0.37 97 1008.9
20260509232321 69 157 0.9 0.9 0.00 0.37 0.37 97 1008.7
20260509231817 69 186 0.0 0.0 0.00 0.37 0.37 97 1008.8
20260509231314 69 184 0.9 0.9 0.00 0.37 0.37 97 1008.5
20260509230812 69 185 0.9 0.9 0.00 0.37 0.37 97 1008.6
20260509230308 69 185 0.0 0.0 0.00 0.37 0.37 96 1008.3
20260509225803 69 184 0.0 0.9 0.00 0.37 0.37 96 1008.5
20260509225300 69 186 0.9 0.9 0.00 0.37 0.37 96 1008.3
20260509224756 69 154 0.0 0.0 0.00 0.37 0.37 96 1008.4
20260509224253 69 86 0.9 1.7 0.07 0.37 0.37 96 1008.3
20260509223749 69 120 0.0 0.0 0.07 0.37 0.37 96 1008.4
20260509223247 69 120 0.0 0.0 0.05 0.36 0.36 95 1008.6
20260509222743 69 96 0.9 1.7 0.05 0.36 0.36 95 1008.4
20260509222239 69 23 1.7 1.7 0.00 0.35 0.35 95 1008.5
20260509221734 69 146 0.9 0.9 0.00 0.35 0.35 95 1008.9
20260509221231 69 146 0.0 0.9 0.07 0.35 0.35 95 1008.7
20260509220727 70 147 0.0 0.0 0.07 0.35 0.35 96 1008.6
20260509220224 70 147 0.0 0.0 0.07 0.35 0.35 96 1008.7
20260509215719 70 171 0.0 0.0 0.00 0.34 0.34 95 1008.6
20260509215216 70 168 0.0 0.0 0.00 0.34 0.34 95 1008.6
20260509214713 70 168 0.0 0.0 0.00 0.34 0.34 95 1008.7
20260509214210 70 133 0.0 0.0 0.00 0.34 0.34 95 1008.4
20260509213707 70 132 0.0 0.0 0.00 0.34 0.34 95 1008.4
20260509213202 70 136 0.0 0.0 0.05 0.34 0.34 95 1008.6
20260509212701 70 142 0.0 0.0 0.05 0.34 0.34 95 1008.8
20260509212157 70 180 0.0 0.0 0.00 0.33 0.33 95 1008.8
20260509211653 70 179 0.9 0.9 0.00 0.33 0.33 95 1009.0
20260509211149 70 190 0.9 0.9 0.00 0.33 0.33 94 1008.9
20260509210646 71 121 0.0 0.9 0.00 0.33 0.33 94 1008.5
20260509210143 71 183 0.0 0.0 0.00 0.33 0.33 94 1008.6
20260509205639 71 175 0.0 0.0 0.00 0.33 0.33 94 1008.7
20260509205133 71 145 0.9 0.9 0.00 0.33 0.33 94 1008.6
20260509204629 71 191 0.9 1.7 0.00 0.33 0.33 95 1008.7
20260509204126 71 186 0.0 0.0 0.00 0.33 0.33 94 1008.6
20260509203622 71 189 0.9 0.9 0.00 0.33 0.33 94 1008.8
20260509203120 71 184 0.9 0.9 0.00 0.33 0.33 94 1008.8
20260509202620 71 172 1.7 1.7 0.00 0.33 0.33 95 1008.9
20260509202115 71 197 1.7 1.7 0.00 0.33 0.33 95 1008.8
20260509201610 71 188 0.9 0.9 0.00 0.33 0.33 95 1008.9
20260509201109 71 184 2.6 2.6 0.00 0.33 0.33 95 1008.9
20260509200603 71 195 2.6 2.6 0.00 0.33 0.33 95 1009.3
20260509200059 71 178 1.7 2.6 0.00 0.33 0.33 95 1008.9
20260509195554 71 174 1.7 1.7 0.00 0.33 0.33 95 1009.1
20260509195050 71 186 0.9 0.9 0.00 0.33 0.33 95 1008.9
20260509194549 71 203 1.7 2.6 0.00 0.33 0.33 95 1009.0
20260509194047 70 213 1.7 1.7 0.00 0.33 0.33 95 1008.8
20260509193542 70 205 0.9 0.9 0.00 0.33 0.33 95 1008.8
20260509193039 70 198 0.9 1.7 0.00 0.33 0.33 95 1008.8
20260509192536 70 209 0.0 0.9 0.00 0.33 0.33 95 1008.7
20260509192031 70 150 0.0 0.0 0.00 0.33 0.33 96 1008.9
20260509191525 69 208 0.9 0.9 0.07 0.33 0.33 95 1008.9
20260509191021 69 193 0.9 0.9 0.07 0.33 0.33 96 1008.9
20260509190519 69 158 0.0 0.9 0.00 0.32 0.32 95 1008.4
20260509190017 69 174 0.0 0.9 0.00 0.32 0.32 95 1008.6
20260509185514 69 165 0.0 0.0 0.00 0.32 0.32 95 1008.7
20260509185010 69 105 0.9 0.9 0.07 0.32 0.32 95 1008.9
20260509184509 69 180 0.9 0.9 0.07 0.32 0.32 95 1009.0
20260509184004 69 167 0.0 0.9 0.00 0.31 0.31 95 1008.9
20260509183459 69 187 0.9 1.7 0.05 0.31 0.31 95 1008.8
20260509182955 69 145 0.0 0.0 0.05 0.31 0.31 95 1008.9
20260509182452 69 151 0.9 0.9 0.05 0.31 0.31 95 1009.2
20260509181949 69 157 0.0 0.0 0.07 0.30 0.30 95 1009.3
20260509181447 69 195 0.9 0.9 0.07 0.30 0.30 95 1009.8
20260509180944 69 168 0.0 0.9 0.05 0.29 0.29 95 1009.9
20260509180440 69 169 0.9 0.9 0.17 0.29 0.29 95 1010.1
20260509175937 69 229 1.7 1.7 0.54 0.28 0.28 95 1010.1
20260509175433 70 149 0.0 0.9 0.47 0.25 0.25 95 1010.1
20260509174929 70 168 0.9 0.9 0.24 0.20 0.20 95 1010.2
20260509174426 70 200 1.7 2.6 0.12 0.17 0.17 95 1010.5
20260509173922 70 201 0.9 1.7 0.12 0.16 0.16 95 1010.5
20260509173421 71 184 2.6 2.6 0.12 0.15 0.15 95 1010.3
20260509172918 71 181 0.9 0.9 0.17 0.14 0.14 94 1010.3
20260509172415 71 208 2.6 2.6 0.24 0.13 0.13 94 1010.4
20260509171911 71 203 1.7 1.7 0.19 0.11 0.11 93 1010.3
20260509171407 71 179 0.0 0.9 0.14 0.09 0.09 92 1010.2
20260509170903 71 202 1.7 1.7 0.19 0.08 0.08 91 1010.1
20260509170359 72 186 1.7 1.7 0.24 0.07 0.07 90 1010.0
20260509165854 73 180 0.0 0.0 0.17 0.05 0.05 89 1010.2
20260509165349 73 169 0.0 0.9 0.05 0.03 0.03 87 1010.3
20260509164845 74 167 0.0 0.0 0.00 0.02 0.02 86 1010.1
20260509164341 74 165 0.0 0.0 0.00 0.02 0.02 85 1010.3
20260509163837 75 177 0.0 0.9 0.00 0.02 0.02 82 1010.2
20260509163334 75 194 0.9 1.7 0.00 0.02 0.02 83 1010.2
20260509162833 75 165 0.0 0.0 0.00 0.02 0.02 80 1010.0
20260509162326 75 164 0.9 0.9 0.00 0.02 0.02 80 1010.1
20260509161823 75 159 0.9 1.7 0.00 0.02 0.02 80 1009.9
20260509161319 76 195 0.9 0.9 0.00 0.02 0.02 80 1009.8
20260509160815 76 166 0.0 0.9 0.00 0.02 0.02 79 1010.1
20260509160311 76 186 0.9 0.9 0.00 0.02 0.02 81 1010.2
20260509155806 76 215 0.9 1.7 0.00 0.02 0.02 79 1009.9
20260509155306 77 188 0.9 0.9 0.00 0.02 0.02 79 1009.6
20260509154759 76 190 0.9 0.9 0.00 0.02 0.02 81 1009.8
20260509154256 76 170 0.9 0.9 0.00 0.02 0.02 81 1009.9
20260509153753 76 153 0.0 0.0 0.00 0.02 0.02 80 1009.9
20260509153249 75 174 0.0 0.9 0.00 0.02 0.02 81 1009.8
20260509152745 75 191 1.7 1.7 0.00 0.02 0.02 83 1009.8
20260509152242 75 17 2.6 4.3 0.00 0.02 0.02 82 1010.0
20260509151739 75 204 0.0 0.9 0.00 0.02 0.02 83 1010.0
20260509151235 75 200 2.6 2.6 0.00 0.02 0.02 84 1010.2
20260509150734 74 86 0.9 0.9 0.00 0.02 0.02 85 1009.9
20260509150232 74 215 0.9 1.7 0.00 0.02 0.02 86 1009.9
20260509145729 75 212 1.7 2.6 0.00 0.02 0.02 84 1010.2
20260509145229 74 174 0.0 0.9 0.00 0.02 0.02 87 1009.9
20260509144726 75 188 3.5 4.3 0.00 0.02 0.02 84 1010.2
20260509144222 75 227 3.5 5.2 0.00 0.02 0.02 85 1010.0
20260509143720 74 177 0.0 0.9 0.00 0.02 0.02 87 1010.1
20260509143217 74 189 0.9 0.9 0.00 0.02 0.02 88 1010.1
20260509142712 74 190 0.9 1.7 0.00 0.02 0.02 87 1010.2
20260509142209 73 214 0.9 1.7 0.00 0.02 0.02 88 1010.2
20260509141704 73 196 0.9 0.9 0.00 0.02 0.02 87 1010.2
20260509141202 73 186 1.7 2.6 0.00 0.02 0.02 87 1010.1
20260509140658 74 210 0.9 0.9 0.00 0.02 0.02 87 1010.1
20260509140156 74 194 1.7 1.7 0.00 0.02 0.02 88 1010.1
20260509135653 73 190 0.9 0.9 0.00 0.02 0.02 88 1010.1
20260509135152 73 188 2.6 2.6 0.00 0.02 0.02 87 1010.2
20260509134648 73 202 0.9 1.7 0.00 0.02 0.02 88 1010.2
20260509134145 73 184 0.9 0.9 0.00 0.02 0.02 89 1010.3
20260509133642 73 159 0.0 0.9 0.00 0.02 0.02 88 1010.3
20260509133139 73 184 0.9 0.9 0.00 0.02 0.02 89 1010.2
20260509132637 72 221 1.7 1.7 0.00 0.02 0.02 90 1010.0
20260509132136 71 163 0.9 0.9 0.00 0.02 0.02 93 1009.8
20260509131631 71 176 0.0 0.9 0.00 0.02 0.02 94 1010.0
20260509131129 70 186 0.9 0.9 0.00 0.02 0.02 95 1009.9
20260509130624 70 174 0.0 0.9 0.00 0.02 0.02 95 1009.9
20260509130121 70 166 0.0 0.0 0.00 0.02 0.02 96 1009.7
20260509125618 70 162 0.0 0.0 0.00 0.02 0.02 96 1009.7
20260509125114 69 120 0.0 0.0 0.00 0.02 0.02 96 1009.7
20260509124611 69 192 0.9 0.9 0.00 0.02 0.02 97 1009.8
20260509124108 69 183 0.9 0.9 0.00 0.02 0.02 97 1009.9
20260509123606 69 171 0.0 0.0 0.00 0.02 0.02 98 1009.7
20260509123102 69 179 0.0 0.0 0.00 0.02 0.02 98 1009.8
20260509122558 69 179 0.0 0.0 0.00 0.02 0.02 98 1009.7
20260509122056 67 121 0.0 0.0 0.00 0.02 0.02 99 1009.6
20260509121552 67 122 0.0 0.0 0.00 0.02 0.02 98 1009.6
20260509121050 66 122 0.0 0.0 0.00 0.02 0.02 98 1009.6
20260509120548 66 122 0.0 0.0 0.00 0.02 0.02 98 1009.4
20260509120046 66 122 0.0 0.0 0.00 0.02 0.02 98 1009.5
20260509115543 66 122 0.0 0.0 0.00 0.02 0.02 98 1009.5
20260509115041 66 122 0.0 0.0 0.00 0.02 0.02 99 1009.4
20260509114538 65 122 0.0 0.0 0.07 0.02 0.02 99 1009.5
20260509114037 65 122 0.0 0.0 0.07 0.02 0.02 98 1009.1
20260509113535 64 122 0.0 0.0 0.00 0.01 0.01 98 1009.3
20260509113032 64 122 0.0 0.0 0.00 0.01 0.01 99 1009.2
20260509112528 64 122 0.0 0.0 0.00 0.01 0.01 98 1009.4
20260509112025 64 96 0.9 0.9 0.00 0.01 0.01 98 1009.4
20260509111523 64 143 0.0 0.0 0.00 0.01 0.01 98 1009.3
20260509111020 63 144 0.0 0.0 0.00 0.01 0.01 98 1009.4
20260509110516 63 106 0.0 0.0 0.00 0.01 0.01 98 1009.0
20260509110014 63 169 0.0 0.0 0.00 0.01 0.01 98 1008.9
20260509105512 63 169 0.0 0.0 0.00 0.01 0.01 98 1009.0
20260509105009 63 168 0.0 0.0 0.00 0.01 0.01 98 1008.8
20260509104506 63 169 0.0 0.0 0.00 0.01 0.01 98 1008.8
20260509104003 63 169 0.0 0.0 0.00 0.01 0.01 98 1008.7
20260509103500 64 168 0.0 0.0 0.00 0.01 0.01 98 1008.4
20260509102958 64 168 0.0 0.0 0.00 0.01 0.01 98 1008.5
20260509102455 64 169 0.0 0.0 0.00 0.01 0.01 98 1008.2
20260509101952 64 169 0.0 0.0 0.00 0.01 0.01 98 1008.3
20260509101448 64 169 0.0 0.0 0.00 0.01 0.01 98 1008.4
20260509100946 64 169 0.0 0.0 0.00 0.01 0.01 98 1008.4
20260509100443 64 169 0.0 0.0 0.00 0.01 0.01 98 1008.4
20260509095939 64 169 0.0 0.0 0.00 0.01 0.01 98 1008.0
20260509095436 64 169 0.0 0.0 0.00 0.01 0.01 98 1008.1
20260509094934 63 169 0.0 0.0 0.00 0.01 0.01 98 1008.1
20260509094430 64 169 0.0 0.0 0.00 0.01 0.01 98 1008.0
20260509093928 64 169 0.0 0.0 0.00 0.01 0.01 98 1008.4
20260509093425 64 169 0.0 0.0 0.00 0.01 0.01 98 1008.2
20260509092923 64 169 0.0 0.0 0.00 0.01 0.01 98 1008.1
20260509092420 64 169 0.0 0.0 0.00 0.01 0.01 98 1008.0
20260509091919 64 169 0.0 0.0 0.00 0.01 0.01 98 1008.1
20260509091415 64 169 0.0 0.0 0.00 0.01 0.01 98 1008.0
20260509090913 64 169 0.0 0.0 0.00 0.01 0.01 98 1007.9
20260509090409 64 169 0.0 0.0 0.00 0.01 0.01 98 1008.1
20260509085908 64 169 0.0 0.0 0.00 0.01 0.01 98 1008.0
20260509085404 64 169 0.0 0.0 0.00 0.01 0.01 98 1008.2
20260509084900 64 169 0.0 0.0 0.00 0.01 0.01 98 1008.2
20260509084357 65 169 0.0 0.0 0.00 0.01 0.01 98 1008.3
20260509083855 65 169 0.0 0.0 0.00 0.01 0.01 98 1008.4
20260509083351 65 169 0.0 0.0 0.00 0.01 0.01 98 1008.4
20260509082848 65 169 0.9 0.9 0.00 0.01 0.01 98 1008.6
20260509082345 65 169 0.0 0.0 0.00 0.01 0.01 98 1008.7
20260509081842 65 165 0.9 0.9 0.00 0.01 0.01 98 1008.8
20260509081339 65 107 0.0 0.0 0.00 0.01 0.01 98 1008.5
20260509080837 65 108 0.0 0.9 0.00 0.01 0.01 98 1008.7
20260509080335 65 109 0.0 0.0 0.00 0.01 0.01 98 1008.7
20260509075833 65 136 0.0 0.0 0.00 0.01 0.01 98 1008.9
20260509075330 65 171 0.0 0.0 0.00 0.01 0.01 98 1009.3
20260509074827 65 158 0.0 0.0 0.00 0.01 0.01 98 1009.4
20260509074325 65 115 0.9 0.9 0.00 0.01 0.01 98 1009.1
20260509073820 65 116 0.9 0.9 0.00 0.01 0.01 98 1009.3
20260509073317 65 139 0.0 0.0 0.00 0.01 0.01 98 1009.2
20260509072814 65 160 0.0 0.0 0.00 0.01 0.01 98 1009.0
20260509072310 65 176 0.0 0.0 0.00 0.01 0.01 98 1009.0
20260509071807 65 135 0.0 0.0 0.00 0.01 0.01 98 1009.1
20260509071304 65 113 0.0 0.9 0.00 0.01 0.01 98 1009.1
20260509070801 65 163 0.0 0.0 0.00 0.01 0.01 98 1009.4
20260509070258 65 104 0.9 0.9 0.00 0.01 0.01 98 1009.1
20260509065754 65 90 0.9 1.7 0.00 0.01 0.01 98 1008.9
20260509065250 65 113 0.0 0.0 0.00 0.01 0.01 98 1009.1
20260509064747 65 124 0.0 0.0 0.00 0.01 0.01 98 1009.2
20260509064244 65 170 0.0 0.0 0.00 0.01 0.01 98 1009.6
20260509063741 65 123 0.0 0.9 0.00 0.01 0.01 98 1009.5
20260509063238 65 117 0.9 0.9 0.00 0.01 0.01 98 1009.5
20260509062735 65 119 0.9 0.9 0.00 0.01 0.01 97 1009.3
20260509062232 65 35 0.9 0.9 0.00 0.01 0.01 97 1009.2
20260509061729 65 99 0.9 0.9 0.00 0.01 0.01 98 1009.4
20260509061227 65 70 0.9 1.7 0.00 0.01 0.01 97 1009.0
20260509060724 65 105 0.0 0.9 0.00 0.01 0.01 97 1009.3
20260509060221 65 175 0.9 1.7 0.00 0.01 0.01 98 1009.4
20260509055716 65 111 0.9 0.9 0.00 0.01 0.01 97 1009.7
20260509055212 65 203 1.7 1.7 0.00 0.01 0.01 97 1009.4
20260509054709 65 133 0.9 0.9 0.00 0.01 0.01 97 1009.6
20260509054206 65 183 0.0 0.0 0.00 0.01 0.01 97 1009.1
20260509053705 65 157 0.9 0.9 0.00 0.01 0.01 97 1009.2
20260509053201 65 130 0.9 0.9 0.00 0.01 0.01 97 1008.6
20260509052659 65 157 0.0 0.0 0.00 0.01 0.01 97 1008.9
20260509052156 65 175 0.0 0.0 0.00 0.01 0.01 97 1009.0
20260509051654 65 111 0.0 0.9 0.00 0.01 0.01 97 1009.2